Temp
17 17 17 17 17 17 17 16 16 16 16 16 16 16 16 16 16 16 16 16 16 16 16 16 16 16 16 16 16 16 16 16 16 16 16 16 16 15 15 15 15 15 15 15 15 15 15 15 15 15 15 15 15 15 15 15 15 15 15 15 15 15 15 15 15 15 15 15 15 16 16 16 16 16
17 17 17 17 17 17 17 17 16 16 16 16 16 16 16 16 16 16 15 16 16 16 16 16 16 16 16 16 16 15 15 16 16 16 16 16 16 16 15 15 15 15 15 15 15 15 14 14 14 14 14 14 15 15 15 14 14 14 15 15 15 15 15 15 15 15 15 15 15 15 15 15 16 16
16 17 17 17 17 17 17 16 16 16 16 16 16 15 15 15 15 15 15 15 16 16 16 16 16 16 16 16 15 15 15 15 15 15 15 16 15 15 15 15 16 16 15 15 15 15 15 15 14 14 14 14 14 14 14 14 14 14 14 14 14 15 15 15 15 15 15 15 15 15 15 15 15 15
16 16 16 16 16 16 16 16 16 16 16 15 15 15 15 15 15 15 15 15 15 16 16 16 16 16 16 16 16 15 15 15 15 15 15 15 15 15 15 15 15 16 16 16 16 15 15 15 15 15 15 14 13 13 13 14 14 14 14 14 14 14 14 14 14 15 15 15 15 15 15 15 15 15
17 17 17 16 16 16 16 16 16 16 15 15 15 15 15 15 15 15 15 15 15 16 16 16 16 15 15 16 16 16 16 15 15 15 15 15 15 14 14 14 14 15 15 15 15 15 15 15 15 15 15 15 14 14 13 14 14 14 14 14 14 14 14 14 14 14 15 15 15 15 15 14 14 14
17 17 17 17 16 16 16 16 16 16 15 15 15 15 15 15 15 15 15 15 15 15 16 16 16 16 16 16 16 16 16 16 15 15 15 15 14 14 14 14 14 14 14 14 14 14 14 14 15 15 15 15 15 14 14 14 14 14 14 14 14 14 14 14 14 14 14 14 15 15 14 14 14 15
16 16 16 16 16 16 16 16 16 16 15 15 15 15 15 15 15 15 15 15 15 15 15 15 16 16 16 16 16 16 15 15 15 15 15 15 14 14 14 14 14 14 14 14 14 14 14 14 14 14 15 15 14 14 14 14 14 14 14 13 13 14 14 14 14 14 14 14 14 14 14 14 14 15
17 17 17 17 17 16 16 16 16 16 15 15 15 15 15 15 15 15 15 15 15 15 15 16 16 16 16 16 16 16 15 15 15 15 15 15 15 14 14 14 14 14 14 14 13 13 13 14 14 14 14 14 14 14 14 14 14 14 14 14 13 13 13 13 14 14 14 14 14 13 13 13 14 14
17 17 17 17 17 17 16 16 16 15 15 15 15 15 15 15 15 15 15 15 15 15 15 15 15 15 16 16 16 16 15 15 15 15 15 15 14 14 14 14 14 13 13 13 13 13 13 13 13 14 14 14 14 14 14 14 14 13 13 14 13 13 13 13 13 13 13 13 13 13 13 13 13 13
18 18 18 17 17 17 16 16 16 15 15 15 15 15 15 15 15 16 16 15 15 15 15 15 15 15 16 16 16 16 15 15 15 15 14 14 14 14 13 13 14 14 13 13 13 13 13 13 13 13 13 13 13 14 14 14 14 13 13 13 13 13 13 13 13 13 13 13 13 13 13 13 13 13
19 19 18 18 17 17 16 16 15 15 15 15 15 15 15 15 16 16 15 15 15 15 15 15 15 16 16 15 15 15 15 14 14 14 14 14 14 14 13 13 13 13 13 13 13 13 13 13 13 13 13 14 14 14 14 13 13 13 13 13 13 13 13 13 13 13 13 13 13 13 13 13 13 13
18 18 18 18 17 17 16 16 15 15 15 16 15 15 15 15 15 15 15 15 15 15 15 15 15 15 15 15 15 15 14 14 14 14 13 13 13 13 13 13 13 13 13 13 13 13 13 13 13 13 13 13 13 13 13 13 13 13 13 13 13 13 13 13 13 13 12 12 12 12 12 13 13 13
18 18 18 18 18 17 16 16 15 16 16 16 16 15 15 15 15 15 15 15 15 15 15 15 15 15 15 15 14 14 14 13 13 13 13 13 13 13 13 13 13 13 13 13 13 13 13 13 13 13 13 13 13 13 13 13 13 13 13 13 13 12 12 12 12 12 12 12 12 12 12 12 12 13
18 18 17 18 17 17 16 15 15 16 15 15 15 15 15 15 15 15 15 15 15 15 15 15 15 14 14 14 14 14 13 13 13 13 13 13 13 12 12 12 13 13 13 13 13 12 13 13 13 12 12 13 13 13 13 13 13 12 12 13 12 12 12 12 12 12 12 12 12 12 12 12 12 12
18 18 17 17 16 16 15 15 15 15 15 15 15 16 16 16 15 15 15 15 15 15 15 14 14 14 14 14 14 13 13 13 12 12 12 12 12 12 12 12 13 13 13 12 12 12 13 13 13 13 13 13 12 12 13 12 12 12 12 12 12 12 12 12 12 12 12 12 12 12 12 12 12 12
18 17 16 16 16 16 15 15 15 15 15 15 15 16 16 16 16 16 15 15 15 15 14 14 14 14 14 13 13 13 13 13 12 12 12 12 12 12 12 12 12 13 13 12 12 12 13 13 13 13 13 12 12 12 12 12 12 12 12 12 12 12 12 12 12 12 12 12 12 12 12 12 12 12
17 17 16 16 16 16 16 15 15 15 15 15 15 15 15 16 15 15 15 15 14 14 14 14 14 14 13 13 13 13 13 12 12 12 12 12 12 12 12 12 12 12 12 12 12 12 13 13 12 12 12 12 11 12 12 12 11 11 11 11 12 12 11 12 12 12 12 12 12 12 12 12 12 12
17 17 16 16 16 16 16 16 16 16 15 15 15 15 15 15 15 15 15 14 14 14 14 14 14 14 13 13 13 13 12 12 12 12 12 12 12 12 12 11 12 12 12 12 12 12 12 12 12 11 12 11 11 11 11 11 11 11 11 11 11 11 11 11 11 12 12 12 12 12 12 12 12 12
17 16 16 16 15 15 16 16 16 16 15 15 15 15 15 15 15 15 14 14 14 14 14 14 13 13 13 12 12 12 12 12 12 12 11 11 11 11 11 11 11 12 12 12 11 11 11 11 11 11 11 11 11 11 11 11 11 11 11 11 11 11 11 11 12 12 12 12 12 12 12 12 11 11
16 16 15 15 15 15 15 15 15 15 15 15 15 15 15 15 14 14 14 14 14 14 14 13 13 12 12 12 12 12 12 11 11 11 11 11 11 11 11 11 11 12 12 12 11 10 10 10 10 10 10 10 10 11 11 11 11 11 11 11 11 11 11 11 12 12 12 12 12 12 12 12 11 11
15 15 15 15 15 15 15 15 15 15 15 15 15 14 14 14 14 14 14 14 14 14 14 13 13 12 12 12 12 11 11 11 11 11 11 11 11 11 11 11 11 11 11 11 11 10 10 10 10 10 10 10 11 11 11 11 11 11 12 11 11 11 12 12 12 12 12 11 11 11 11 11 11 10
15 15 15 15 15 15 15 15 15 15 15 15 14 14 14 14 14 14 14 14 14 14 13 13 12 12 11 11 11 11 11 11 11 11 11 11 11 10 10 11 11 11 11 11 10 9 9 10 10 10 10 10 11 11 11 11 11 12 11 11 11 11 12 11 11 11 11 11 11 11 11 10 10 10
15 15 15 15 14 14 14 14 14 14 14 14 14 14 14 14 14 14 14 14 13 13 13 12 12 12 11 11 11 11 11 11 11 10 10 10 10 10 10 10 10 10 10 10 9 9 9 10 10 10 10 10 10 10 11 11 11 11 11 11 11 11 11 11 11 11 11 11 11 11 10 10 10 10
15 15 15 15 14 14 15 14 14 14 14 14 14 14 14 14 14 14 13 13 13 12 12 12 12 12 11 11 11 11 11 10 10 10 10 10 10 10 10 9 9 9 9 9 9 9 9 9 9 10 10 9 9 9 10 11 11 11 11 11 11 11 11 10 10 10 10 10 10 10 10 10 10 10
15 15 15 15 15 15 14 14 14 14 14 14 14 14 14 14 13 13 13 12 12 12 12 11 11 11 11 11 11 10 10 10 10 10 10 9 9 9 9 9 9 9 9 9 9 9 9 8 9 9 9 9 8 9 9 10 11 11 10 10 10 11 10 10 10 10 10 11 10 10 10 10 10 9
15 15 15 15 15 14 14 14 14 14 14 14 14 14 14 13 13 12 12 12 12 11 11 11 11 11 11 11 10 10 9 9 9 10 10 9 9 9 9 9 9 9 9 10 10 9 8 8 8 9 9 9 9 9 9 9 10 10 10 10 10 10 10 10 10 10 11 10 10 10 10 10 9 9
15 15 15 15 14 14 14 14 14 14 14 14 14 14 13 13 12 12 12 12 11 11 10 10 11 11 11 10 10 10 9 9 9 9 9 9 9 9 9 9 9 9 9 9 9 9 8 8 9 9 8 8 8 8 8 9 9 10 10 10 10 10 10 10 10 10 10 10 10 10 10 9 9 8
15 15 15 14 14 14 14 14 14 14 14 14 14 13 13 12 12 12 12 12 11 10 10 10 10 11 10 10 10 10 9 9 9 9 9 9 9 9 9 9 9 9 9 9 9 9 8 9 9 9 9 9 8 8 9 9 9 9 10 10 10 10 10 10 10 10 10 10 10 9 9 9 8 8
14 14 14 14 14 14 14 14 14 14 14 13 13 13 12 12 12 12 12 11 11 11 10 10 10 10 10 10 10 10 9 9 8 8 8 8 8 8 8 9 9 9 9 9 9 9 9 9 9 9 9 9 9 9 9 9 9 9 9 9 10 10 10 10 10 9 9 9 9 9 9 8 8 8
14 14 14 14 14 14 14 14 14 14 13 13 13 12 12 12 12 12 11 11 11 11 10 10 10 10 9 10 10 9 9 9 8 8 8 8 8 8 8 8 9 9 9 9 9 9 9 9 9 9 9 9 9 9 9 9 8 9 9 9 10 10 10 10 9 9 8 8 9 9 8 8 7 7
15 14 14 14 14 14 14 14 14 13 13 13 12 12 12 12 12 11 11 11 11 11 10 10 10 9 9 9 9 9 9 9 8 8 8 8 8 8 8 8 8 9 9 9 9 9 9 9 9 9 9 9 9 9 9 8 8 9 9 9 9 9 9 9 9 8 8 8 9 9 8 7 7 7
15 14 14 14 14 14 14 14 13 13 13 13 13 12 12 12 12 11 11 11 11 10 10 10 9 9 9 9 9 9 9 9 8 8 8 8 8 8 8 8 8 9 9 9 9 9 9 9 9 9 9 9 9 9 9 9 9 9 9 9 9 9 9 9 8 8 8 8 8 8 7 7 7 7
15 14 14 14 14 14 14 13 13 13 13 13 13 12 12 12 12 12 11 11 10 10 10 9 9 9 9 9 9 9 9 9 8 8 8 8 8 8 8 8 9 9 9 9 9 9 9 9 9 9 9 9 9 9 9 9 9 9 9 9 9 8 8 8 8 8 8 8 7 7 7 7 7 7
15 14 14 14 14 14 13 13 13 12 12 13 12 12 12 12 11 11 11 10 10 10 10 9 9 9 9 9 9 9 9 8 8 8 8 8 8 8 8 8 9 9 9 9 9 9 9 9 9 9 9 9 9 9 9 9 9 9 9 8 8 8 8 8 8 8 8 7 6 6 7 7 7 8
15 14 14 14 13 13 13 13 12 12 12 12 12 12 12 12 11 11 10 10 10 10 10 10 10 9 9 9 9 9 8 8 8 8 8 8 8 8 8 8 9 8 8 8 8 9 9 9 9 9 9 9 9 10 10 9 9 9 9 8 8 8 8 8 8 8 7 7 6 6 6 6 7 8
15 14 14 14 13 13 13 13 12 12 12 12 12 12 12 11 11 11 10 10 10 10 10 10 10 10 9 9 9 8 8 8 8 8 8 8 8 8 8 8 8 8 8 8 9 9 9 9 9 9 9 9 9 9 10 10 9 8 8 8 8 7 7 7 8 8 7 6 6 6 5 5 6 7
14 14 13 13 13 13 12 12 12 12 12 12 12 12 11 11 11 11 10 10 10 10 10 10 10 9 9 9 8 8 8 8 8 8 8 8 8 8 8 8 8 8 8 8 9 9 9 9 9 9 8 9 8 8 9 9 9 8 8 7 7 7 7 7 7 7 6 6 5 5 5 5 6 7
14 13 13 13 12 12 12 12 12 12 11 11 11 12 12 11 11 11 10 10 10 10 10 10 9 9 9 9 8 8 8 8 8 8 8 8 8 8 8 8 8 8 8 8 8 9 9 9 9 9 8 9 8 8 8 9 9 9 8 7 7 6 6 7 7 6 6 5 5 5 4 4 5 6
13 13 13 12 12 12 12 12 12 11 11 11 11 11 11 11 11 10 10 10 10 10 9 9 9 9 8 8 8 8 8 8 8 8 8 8 8 8 8 8 8 8 8 8 8 8 9 9 9 9 8 8 8 8 8 8 8 9 8 7 6 6 6 6 6 5 5 5 4 4 4 5 6 6
13 13 12 12 12 12 12 11 11 11 11 11 11 11 11 10 10 10 10 10 10 9 9 9 9 9 8 8 8 8 8 8 8 8 8 8 8 8 8 8 8 8 8 8 8 8 8 8 8 8 9 9 8 8 8 8 8 8 8 7 7 6 6 6 5 4 4 4 4 3 4 5 5 6
13 12 12 12 12 12 11 11 11 11 11 11 10 10 10 10 10 10 10 9 9 9 9 9 9 8 8 8 8 8 8 8 7 7 7 7 7 8 8 8 8 8 8 8 8 8 8 8 8 9 9 9 9 8 8 8 8 8 8 7 7 7 7 6 5 4 3 3 3 3 3 4 4 5
12 12 12 12 12 11 11 11 11 11 11 10 10 10 10 10 9 9 9 9 9 9 9 9 8 8 8 8 8 7 7 7 7 7 7 7 7 7 7 8 8 8 8 8 8 8 8 8 8 9 9 9 9 8 8 8 8 7 7 7 7 7 7 7 6 5 4 3 2 3 3 3 3 4
12 12 12 11 11 11 11 11 10 10 10 10 10 10 10 9 9 9 9 9 9 9 9 8 8 8 7 7 7 7 7 7 7 7 7 7 7 7 7 7 8 7 8 8 8 8 8 9 9 9 9 9 8 8 8 8 8 7 7 7 7 7 7 7 6 6 5 3 3 2 3 3 3 3
12 11 11 11 11 11 11 10 10 10 10 10 9 9 9 9 9 9 9 9 9 9 8 8 8 8 8 7 7 7 7 7 7 7 7 7 7 7 7 7 7 7 8 8 8 8 9 9 9 9 9 8 8 8 8 8 8 7 7 7 7 7 7 7 6 6 6 4 3 3 3 3 3 3
11 11 11 11 11 11 11 10 10 10 10 10 9 10 9 9 9 9 9 9 9 8 8 8 8 8 7 7 7 7 7 7 7 7 7 7 7 7 7 7 7 7 8 8 8 8 9 9 9 9 8 8 8 8 8 8 7 7 7 7 7 7 7 6 5 5 5 4 3 3 3 3 3 3
Height
1565 1565 1566 1567 1568 1569 1570 1570 1570 1570 1570 1571 1571 1571 1571 1571 1571 1571 1570 1571 1571 1571 1572 1571 1571 1571 1571 1571 1572 1572 1571 1570 1570 1568 1568 1567 1566 1565 1564 1563 1562 1562 1561 1561 1561 1561 1561 1561 1561 1560 1560 1560 1559 1559 1559 1558 1558 1558 1558 1558 1557 1557 1557 1557 1557 1556 1556 1556 1556 1555 1555 1555 1555 1554
1563 1564 1564 1565 1566 1567 1567 1568 1568 1569 1569 1569 1569 1570 1570 1570 1570 1569 1569 1569 1569 1569 1570 1570 1570 1570 1570 1570 1570 1570 1569 1569 1568 1567 1567 1566 1565 1564 1563 1561 1560 1559 1558 1558 1558 1558 1558 1558 1558 1558 1557 1557 1557 1557 1556 1556 1556 1555 1555 1555 1555 1555 1554 1554 1554 1553 1553 1553 1553 1552 1552 1552 1552 1551
1562 1562 1563 1564 1564 1565 1565 1566 1567 1567 1567 1568 1568 1568 1568 1569 1569 1569 1568 1567 1567 1567 1567 1568 1568 1568 1568 1568 1568 1568 1567 1567 1566 1566 1565 1564 1564 1563 1562 1561 1559 1558 1557 1556 1556 1556 1555 1555 1555 1555 1554 1554 1554 1554 1554 1553 1553 1553 1552 1552 1552 1552 1551 1551 1551 1551 1550 1549 1549 1549 1549 1549 1549 1548
1561 1561 1562 1562 1562 1563 1564 1564 1565 1565 1566 1566 1566 1566 1567 1567 1567 1568 1567 1566 1566 1566 1566 1566 1566 1567 1567 1567 1566 1566 1565 1565 1564 1563 1562 1562 1561 1560 1559 1559 1558 1557 1556 1555 1554 1554 1554 1553 1553 1552 1552 1551 1551 1551 1551 1551 1550 1550 1550 1549 1549 1549 1548 1548 1548 1547 1547 1546 1546 1545 1545 1545 1545 1545
1560 1560 1560 1561 1561 1561 1562 1562 1563 1564 1564 1565 1565 1565 1565 1565 1566 1566 1566 1566 1565 1564 1565 1564 1564 1565 1564 1564 1564 1563 1562 1562 1561 1560 1560 1559 1558 1557 1556 1556 1555 1554 1554 1553 1552 1552 1552 1551 1550 1550 1549 1548 1548 1548 1548 1548 1548 1547 1547 1547 1546 1546 1545 1544 1544 1543 1543 1543 1542 1542 1542 1542 1542 1542
1558 1559 1559 1559 1559 1559 1560 1560 1561 1562 1562 1563 1564 1564 1564 1564 1564 1565 1565 1564 1564 1563 1563 1563 1563 1563 1562 1561 1561 1560 1559 1559 1558 1557 1557 1556 1556 1555 1554 1553 1552 1551 1551 1550 1550 1550 1549 1549 1548 1547 1546 1546 1545 1545 1545 1544 1544 1544 1544 1543 1543 1543 1542 1541 1540 1539 1539 1539 1539 1538 1538 1538 1538 1538
1557 1557 1557 1558 1558 1558 1558 1558 1559 1560 1561 1561 1562 1563 1563 1563 1563 1563 1563 1563 1563 1562 1561 1561 1560 1560 1559 1558 1558 1557 1556 1555 1555 1554 1553 1553 1553 1552 1551 1550 1549 1548 1548 1547 1547 1547 1546 1546 1545 1544 1544 1543 1543 1542 1541 1541 1540 1540 1539 1539 1539 1539 1538 1537 1536 1536 1535 1535 1535 1535 1535 1534 1534 1533
1554 1555 1555 1556 1557 1557 1556 1557 1557 1558 1559 1559 1560 1560 1560 1561 1561 1561 1561 1561 1561 1560 1559 1558 1558 1558 1557 1556 1555 1554 1553 1552 1551 1550 1550 1549 1549 1549 1548 1548 1546 1545 1545 1544 1544 1544 1544 1543 1542 1541 1541 1540 1540 1539 1538 1538 1537 1537 1536 1535 1534 1534 1534 1533 1533 1532 1532 1531 1531 1531 1530 1530 1529 1529
1552 1553 1553 1554 1555 1555 1555 1555 1555 1555 1557 1557 1558 1558 1558 1558 1559 1559 1559 1559 1558 1557 1556 1556 1556 1556 1555 1553 1552 1551 1550 1549 1548 1547 1546 1546 1545 1545 1544 1544 1543 1542 1542 1542 1541 1541 1541 1540 1539 1538 1537 1536 1536 1535 1534 1534 1533 1533 1532 1531 1531 1530 1530 1529 1529 1528 1528 1527 1527 1526 1525 1525 1525 1524
1549 1550 1551 1552 1553 1553 1553 1553 1553 1553 1554 1555 1555 1556 1556 1556 1556 1556 1556 1556 1556 1555 1555 1554 1553 1553 1552 1551 1549 1549 1548 1546 1545 1543 1543 1542 1542 1541 1540 1540 1540 1539 1538 1538 1538 1538 1537 1536 1536 1535 1534 1533 1532 1531 1531 1530 1529 1529 1528 1528 1527 1526 1526 1525 1525 1524 1523 1523 1522 1521 1521 1520 1520 1520
1546 1547 1548 1549 1550 1551 1551 1551 1551 1551 1552 1552 1553 1553 1553 1553 1553 1553 1553 1553 1553 1553 1552 1552 1550 1549 1549 1547 1546 1545 1544 1543 1542 1541 1540 1539 1539 1538 1537 1536 1536 1535 1534 1534 1534 1534 1533 1532 1532 1531 1530 1529 1528 1527 1527 1526 1525 1525 1524 1524 1523 1522 1522 1521 1520 1520 1519 1518 1518 1517 1517 1516 1516 1515
1544 1544 1545 1546 1547 1547 1548 1549 1549 1549 1549 1550 1550 1551 1551 1552 1551 1551 1551 1550 1550 1550 1549 1548 1547 1546 1545 1544 1543 1542 1541 1540 1539 1539 1538 1536 1535 1535 1534 1533 1532 1531 1531 1530 1530 1530 1529 1528 1527 1526 1526 1525 1524 1523 1522 1522 1521 1520 1520 1519 1518 1518 1517 1516 1516 1515 1514 1514 1513 1513 1513 1512 1512 1511
1543 1542 1542 1542 1544 1544 1545 1547 1547 1547 1547 1548 1548 1549 1550 1550 1550 1549 1549 1548 1547 1547 1546 1545 1544 1543 1542 1541 1540 1539 1538 1537 1536 1536 1536 1534 1532 1532 1530 1529 1529 1528 1527 1526 1525 1525 1525 1523 1522 1522 1521 1520 1520 1519 1518 1517 1516 1515 1515 1514 1513 1512 1512 1511 1511 1510 1510 1510 1509 1509 1508 1508 1507 1506
1541 1541 1541 1540 1541 1542 1543 1544 1545 1545 1545 1545 1546 1546 1547 1547 1547 1546 1546 1545 1545 1544 1543 1542 1541 1540 1538 1537 1537 1536 1535 1535 1534 1533 1533 1531 1530 1529 1527 1526 1526 1526 1524 1522 1520 1520 1521 1519 1517 1516 1516 1515 1515 1514 1513 1512 1511 1510 1510 1509 1508 1507 1507 1507 1507 1506 1506 1506 1505 1504 1503 1502 1502 1501
1538 1538 1539 1539 1539 1540 1541 1541 1542 1542 1542 1542 1542 1543 1543 1543 1543 1543 1542 1542 1541 1541 1539 1539 1538 1536 1535 1534 1534 1533 1532 1532 1531 1530 1529 1528 1527 1526 1524 1522 1522 1522 1521 1519 1515 1515 1516 1515 1512 1511 1511 1510 1509 1509 1508 1508 1507 1506 1506 1505 1505 1504 1504 1503 1503 1502 1502 1501 1500 1499 1498 1497 1497 1496
1535 1536 1536 1537 1538 1538 1538 1539 1539 1539 1540 1540 1540 1541 1541 1541 1540 1540 1539 1539 1538 1538 1536 1535 1534 1532 1531 1531 1530 1530 1529 1528 1528 1527 1526 1525 1523 1522 1521 1519 1518 1519 1518 1515 1511 1509 1510 1510 1507 1506 1506 1506 1505 1505 1504 1503 1503 1503 1502 1502 1502 1501 1500 1500 1499 1498 1497 1496 1495 1494 1493 1492 1491 1490
1533 1533 1534 1535 1536 1536 1536 1536 1537 1537 1537 1538 1538 1539 1539 1538 1538 1537 1537 1536 1535 1534 1532 1530 1529 1529 1528 1527 1527 1527 1526 1525 1524 1523 1522 1521 1520 1519 1517 1516 1515 1515 1515 1512 1507 1504 1505 1506 1503 1502 1502 1502 1502 1501 1500 1500 1500 1499 1499 1498 1498 1497 1496 1495 1495 1494 1492 1491 1490 1488 1487 1486 1485 1484
1530 1531 1532 1532 1532 1533 1533 1534 1534 1534 1535 1535 1536 1536 1536 1536 1535 1535 1534 1533 1532 1531 1529 1527 1526 1526 1526 1525 1524 1524 1523 1522 1521 1520 1519 1518 1517 1515 1514 1513 1512 1511 1511 1509 1504 1501 1501 1502 1500 1498 1498 1499 1498 1498 1497 1497 1497 1496 1495 1494 1493 1493 1492 1491 1490 1488 1487 1486 1484 1482 1481 1480 1478 1477
1527 1528 1529 1529 1529 1530 1530 1531 1532 1532 1533 1533 1533 1533 1533 1533 1532 1531 1530 1530 1528 1527 1526 1524 1523 1523 1523 1522 1521 1521 1520 1519 1518 1517 1516 1515 1514 1512 1510 1509 1508 1508 1508 1507 1503 1498 1498 1499 1497 1495 1495 1495 1495 1494 1494 1493 1493 1492 1491 1490 1489 1488 1487 1485 1484 1483 1481 1480 1478 1476 1475 1473 1471 1470
1524 1524 1525 1526 1526 1527 1527 1528 1529 1530 1530 1530 1530 1530 1530 1530 1529 1528 1528 1527 1526 1524 1523 1522 1521 1520 1520 1519 1519 1518 1517 1517 1516 1515 1513 1512 1511 1509 1507 1505 1505 1505 1504 1504 1501 1497 1496 1497 1495 1493 1492 1492 1491 1491 1491 1490 1489 1488 1487 1485 1484 1483 1482 1480 1479 1477 1475 1473 1471 1469 1468 1466 1463 1461
1519 1521 1521 1522 1523 1524 1525 1526 1527 1528 1528 1527 1527 1527 1527 1527 1526 1525 1525 1524 1523 1522 1521 1520 1519 1518 1517 1517 1516 1516 1515 1515 1514 1512 1511 1510 1508 1506 1504 1502 1502 1502 1501 1501 1499 1495 1493 1494 1492 1489 1488 1488 1487 1487 1486 1485 1484 1483 1482 1481 1480 1478 1477 1475 1473 1471 1469 1466 1464 1462 1460 1458 1455 1453
1516 1517 1519 1520 1520 1521 1522 1524 1525 1525 1525 1525 1525 1525 1524 1524 1523 1523 1522 1521 1521 1520 1519 1518 1517 1516 1516 1515 1514 1514 1513 1512 1511 1509 1508 1507 1506 1504 1502 1500 1499 1499 1498 1498 1496 1494 1491 1491 1489 1486 1484 1483 1483 1483 1481 1480 1480 1478 1477 1476 1475 1473 1472 1470 1467 1465 1462 1460 1457 1455 1453 1451 1448 1445
1514 1516 1517 1518 1518 1519 1520 1521 1522 1522 1523 1522 1522 1522 1522 1521 1521 1520 1519 1519 1518 1517 1516 1515 1515 1514 1513 1512 1511 1511 1510 1509 1508 1507 1506 1505 1503 1501 1500 1499 1497 1496 1495 1495 1495 1492 1490 1488 1487 1485 1482 1477 1476 1477 1477 1476 1475 1474 1473 1471 1470 1468 1466 1464 1461 1458 1456 1453 1451 1449 1447 1445 1442 1438
1512 1514 1515 1515 1516 1516 1517 1518 1519 1520 1520 1520 1520 1520 1520 1519 1518 1518 1517 1516 1515 1514 1513 1512 1512 1511 1510 1509 1508 1507 1507 1506 1506 1505 1503 1502 1501 1499 1498 1497 1496 1494 1493 1493 1493 1491 1488 1486 1484 1484 1482 1476 1472 1473 1473 1472 1470 1469 1469 1467 1465 1463 1461 1458 1455 1453 1450 1448 1445 1443 1440 1438 1436 1432
1510 1511 1512 1513 1514 1515 1515 1516 1516 1517 1517 1517 1518 1518 1517 1517 1516 1515 1515 1514 1513 1511 1510 1509 1509 1508 1507 1506 1505 1505 1504 1504 1503 1502 1501 1500 1499 1498 1497 1495 1494 1493 1491 1491 1491 1488 1485 1484 1481 1480 1479 1476 1472 1470 1469 1467 1465 1465 1465 1463 1460 1458 1455 1453 1450 1447 1444 1441 1439 1436 1433 1430 1428 1425
1508 1509 1510 1511 1512 1512 1513 1513 1513 1514 1515 1515 1515 1515 1515 1514 1513 1513 1512 1511 1510 1509 1507 1507 1506 1505 1505 1504 1503 1503 1502 1502 1501 1500 1498 1498 1497 1496 1495 1493 1492 1490 1488 1488 1487 1485 1483 1481 1479 1478 1476 1474 1471 1468 1466 1464 1461 1461 1460 1458 1456 1454 1451 1449 1445 1441 1438 1435 1432 1429 1426 1423 1420 1417
1505 1506 1507 1508 1510 1510 1510 1511 1511 1512 1513 1513 1513 1513 1512 1512 1511 1510 1510 1508 1507 1506 1505 1504 1504 1504 1503 1502 1501 1501 1500 1499 1498 1497 1496 1495 1494 1493 1492 1491 1489 1487 1486 1485 1484 1483 1481 1479 1477 1476 1474 1471 1469 1466 1463 1461 1458 1456 1455 1453 1452 1450 1447 1444 1440 1436 1433 1429 1426 1422 1419 1415 1412 1409
1503 1504 1505 1506 1507 1508 1508 1509 1509 1510 1511 1511 1511 1510 1510 1509 1509 1508 1508 1507 1505 1504 1503 1503 1503 1503 1502 1501 1500 1500 1499 1497 1496 1494 1493 1492 1491 1490 1489 1487 1486 1485 1484 1482 1481 1480 1479 1477 1475 1474 1472 1470 1467 1464 1460 1458 1455 1453 1450 1448 1446 1445 1443 1440 1436 1431 1427 1423 1420 1416 1412 1407 1404 1401
1501 1502 1503 1504 1505 1506 1506 1507 1507 1508 1508 1508 1508 1508 1508 1507 1507 1507 1506 1505 1504 1503 1503 1502 1502 1501 1501 1500 1499 1498 1497 1495 1493 1492 1490 1489 1489 1487 1486 1484 1483 1482 1482 1481 1480 1479 1477 1475 1473 1471 1470 1468 1466 1462 1459 1455 1452 1449 1447 1444 1441 1439 1438 1436 1432 1427 1423 1419 1414 1410 1406 1401 1397 1394
1500 1501 1502 1503 1504 1504 1505 1505 1505 1506 1506 1506 1506 1506 1506 1506 1505 1505 1504 1504 1503 1502 1502 1501 1500 1500 1499 1498 1497 1496 1494 1493 1491 1490 1488 1487 1486 1485 1484 1481 1480 1480 1480 1479 1478 1476 1475 1473 1471 1469 1467 1465 1463 1460 1457 1453 1449 1446 1444 1441 1437 1433 1431 1430 1427 1422 1418 1413 1408 1404 1399 1395 1391 1388
1498 1499 1500 1501 1502 1502 1502 1503 1503 1504 1504 1504 1504 1504 1504 1504 1504 1503 1502 1502 1501 1501 1500 1499 1499 1498 1498 1496 1495 1494 1492 1491 1490 1488 1487 1486 1485 1483 1482 1480 1478 1477 1476 1476 1475 1474 1472 1471 1469 1467 1465 1463 1460 1457 1455 1451 1447 1443 1441 1439 1435 1430 1426 1423 1420 1416 1412 1407 1402 1396 1392 1388 1384 1381
1497 1497 1498 1499 1499 1500 1500 1501 1501 1502 1502 1502 1502 1502 1502 1502 1502 1501 1501 1500 1499 1499 1499 1498 1497 1497 1496 1494 1493 1492 1490 1489 1488 1487 1486 1485 1483 1482 1481 1479 1476 1475 1473 1472 1472 1471 1469 1468 1467 1465 1463 1461 1458 1455 1451 1448 1444 1440 1438 1437 1434 1429 1424 1420 1415 1410 1407 1402 1395 1389 1385 1382 1378 1375
1495 1496 1496 1497 1497 1498 1499 1499 1500 1500 1500 1500 1500 1500 1499 1499 1499 1499 1499 1498 1498 1497 1497 1496 1496 1495 1494 1493 1491 1490 1489 1488 1487 1486 1485 1484 1482 1481 1479 1477 1475 1474 1471 1469 1468 1467 1466 1465 1464 1462 1460 1459 1456 1453 1449 1445 1441 1438 1436 1433 1430 1425 1421 1417 1412 1406 1402 1397 1390 1383 1379 1376 1372 1369
1494 1494 1494 1495 1496 1496 1497 1498 1498 1498 1498 1498 1498 1497 1497 1497 1497 1497 1497 1496 1495 1495 1495 1494 1494 1493 1492 1491 1489 1488 1487 1487 1486 1485 1484 1482 1481 1479 1477 1476 1474 1473 1471 1468 1467 1465 1463 1462 1460 1459 1457 1456 1453 1451 1448 1443 1439 1436 1434 1430 1426 1421 1416 1412 1407 1402 1398 1393 1387 1379 1373 1368 1365 1363
1492 1492 1493 1494 1494 1495 1496 1496 1496 1497 1496 1496 1496 1495 1495 1495 1495 1495 1494 1494 1494 1494 1493 1493 1492 1491 1490 1489 1487 1486 1486 1485 1484 1483 1482 1481 1479 1478 1476 1474 1472 1471 1469 1468 1466 1464 1462 1460 1458 1456 1454 1452 1449 1445 1443 1441 1438 1434 1431 1428 1424 1419 1413 1408 1403 1398 1393 1389 1384 1377 1369 1362 1357 1356
1490 1490 1491 1492 1493 1493 1494 1494 1495 1495 1495 1494 1494 1493 1493 1492 1492 1492 1492 1493 1493 1492 1491 1491 1490 1489 1488 1487 1485 1485 1484 1484 1483 1482 1480 1479 1478 1476 1475 1473 1471 1469 1468 1466 1464 1463 1460 1458 1456 1454 1452 1450 1446 1442 1439 1438 1437 1434 1429 1425 1421 1416 1411 1405 1400 1395 1390 1385 1380 1374 1367 1359 1353 1350
1488 1489 1489 1490 1491 1491 1492 1492 1493 1493 1493 1493 1492 1491 1491 1491 1491 1491 1491 1491 1490 1490 1489 1489 1488 1487 1486 1485 1484 1484 1483 1482 1481 1480 1479 1478 1476 1475 1473 1471 1470 1468 1467 1465 1463 1461 1459 1457 1455 1453 1451 1448 1445 1441 1438 1436 1435 1434 1430 1424 1419 1414 1409 1402 1396 1391 1386 1382 1377 1371 1365 1358 1351 1347
1486 1487 1487 1488 1489 1490 1490 1491 1491 1491 1491 1491 1491 1490 1490 1490 1489 1490 1489 1489 1488 1488 1488 1487 1486 1485 1484 1483 1483 1483 1482 1481 1480 1479 1478 1476 1475 1473 1472 1470 1468 1467 1465 1463 1462 1460 1458 1455 1453 1452 1450 1446 1443 1440 1436 1432 1430 1430 1428 1424 1418 1412 1407 1401 1394 1387 1382 1378 1373 1367 1362 1357 1351 1346
1484 1485 1485 1486 1487 1488 1489 1489 1489 1489 1489 1489 1489 1489 1489 1489 1488 1488 1487 1487 1487 1486 1486 1485 1484 1483 1482 1481 1482 1481 1480 1480 1479 1477 1476 1475 1473 1472 1470 1469 1467 1465 1463 1461 1460 1458 1456 1454 1452 1450 1448 1445 1442 1439 1436 1432 1428 1426 1425 1422 1417 1411 1405 1399 1393 1386 1380 1375 1368 1362 1356 1352 1348 1344
1482 1483 1484 1485 1486 1486 1486 1486 1487 1487 1487 1487 1487 1487 1487 1487 1486 1486 1485 1485 1485 1484 1484 1483 1482 1481 1480 1480 1480 1480 1479 1478 1477 1476 1475 1474 1472 1471 1469 1467 1466 1464 1462 1460 1458 1456 1455 1453 1450 1448 1446 1443 1441 1438 1435 1432 1428 1424 1422 1419 1416 1411 1405 1399 1393 1386 1380 1373 1366 1359 1352 1346 1341 1338
1481 1482 1483 1483 1483 1483 1484 1485 1485 1485 1486 1486 1485 1485 1485 1485 1484 1484 1483 1483 1483 1483 1482 1482 1480 1480 1479 1479 1479 1478 1478 1477 1476 1474 1473 1472 1471 1469 1468 1466 1464 1463 1461 1458 1457 1455 1453 1450 1448 1446 1444 1441 1439 1436 1433 1429 1426 1422 1419 1416 1414 1410 1406 1400 1394 1387 1381 1374 1367 1359 1352 1346 1340 1334
1479 1480 1480 1481 1481 1481 1482 1483 1484 1484 1484 1484 1483 1483 1483 1483 1483 1482 1482 1482 1482 1481 1481 1480 1479 1479 1478 1478 1478 1477 1476 1475 1474 1473 1472 1471 1469 1468 1466 1465 1463 1461 1459 1457 1455 1453 1451 1449 1446 1444 1442 1439 1436 1434 1431 1428 1424 1421 1417 1414 1411 1408 1404 1399 1394 1388 1382 1375 1369 1361 1354 1347 1341 1335
1477 1478 1478 1478 1479 1480 1481 1481 1482 1482 1482 1482 1482 1482 1481 1481 1481 1481 1480 1480 1480 1479 1478 1478 1477 1477 1477 1476 1476 1475 1475 1474 1473 1472 1471 1469 1468 1466 1465 1463 1461 1460 1458 1456 1454 1451 1449 1447 1444 1442 1439 1437 1435 1433 1430 1427 1424 1420 1416 1413 1408 1405 1401 1397 1393 1388 1382 1377 1371 1365 1359 1353 1346 1340
1475 1476 1476 1476 1477 1478 1479 1479 1480 1480 1480 1480 1480 1480 1480 1480 1479 1479 1479 1479 1478 1477 1476 1476 1476 1476 1475 1475 1474 1474 1473 1472 1471 1470 1469 1468 1466 1465 1463 1462 1460 1458 1456 1454 1452 1450 1447 1445 1443 1441 1438 1436 1434 1432 1429 1426 1423 1420 1416 1412 1408 1403 1398 1393 1389 1385 1380 1375 1370 1365 1361 1357 1352 1346
1473 1474 1474 1475 1476 1476 1477 1478 1478 1478 1478 1479 1479 1478 1478 1478 1478 1478 1477 1477 1476 1475 1475 1475 1475 1474 1474 1473 1473 1472 1471 1471 1470 1469 1467 1466 1465 1464 1462 1460 1458 1456 1455 1453 1451 1448 1446 1444 1442 1440 1438 1436 1434 1432 1429 1426 1423 1420 1416 1412 1408 1403 1398 1393 1388 1382 1377 1373 1369 1364 1359 1355 1351 1347
Wind_Speed
16 16 15 14 14 14 13 12 13 12 11 13 14 14 13 12 11 10 9 8 8 8 8 8 8 6 4 7 9 12 15 16 18 20 20 20 21 21 21 20 20 20 19 19 19 18 16 16 16 17 17 17 17 17 18 18 18 18 18 18 18 19 20 22 22 23 23 23 23 23 23 23 23 23
16 16 14 13 13 13 12 12 14 14 14 14 13 12 12 10 9 10 8 7 7 6 5 6 8 9 9 10 12 13 16 16 17 19 20 20 19 20 20 21 22 22 22 21 21 20 20 19 18 17 17 17 18 18 19 19 20 19 19 19 18 18 19 20 22 24 24 24 24 24 24 24 24 24
17 16 14 13 13 12 12 12 13 13 12 11 11 10 10 9 8 8 8 8 7 6 5 5 7 9 10 11 12 15 16 17 18 20 21 20 19 19 20 21 22 23 22 21 20 21 22 22 21 19 18 17 18 20 20 19 20 20 19 19 18 18 19 20 22 24 25 25 25 25 25 25 25 25
16 15 14 13 13 13 13 12 12 11 10 10 11 12 12 11 8 7 8 10 9 7 7 7 6 8 9 10 11 14 16 17 18 19 20 20 19 19 20 22 23 22 21 22 22 22 22 22 23 23 22 21 21 22 21 19 18 19 20 20 20 21 22 23 24 24 25 26 26 26 26 25 25 26
14 14 14 13 12 12 12 10 10 10 11 12 13 13 12 11 9 8 8 10 11 9 8 8 9 9 11 12 12 13 14 15 16 18 20 20 20 21 22 24 25 24 23 23 23 24 23 23 23 23 24 23 22 23 24 23 21 21 21 21 22 24 25 26 26 26 26 26 26 27 25 24 26 27
14 13 13 13 12 12 11 11 11 10 11 13 13 11 10 10 9 8 8 10 13 14 12 11 12 11 11 13 14 14 15 16 17 19 21 22 22 23 24 25 27 27 26 26 25 25 25 26 24 22 21 21 22 23 24 25 25 24 24 24 24 25 25 25 26 27 26 24 24 24 24 26 27 29
15 14 15 15 15 15 15 15 14 11 10 12 12 10 10 10 9 9 10 12 15 17 16 14 15 14 13 14 16 17 18 18 19 20 21 22 23 24 24 25 26 27 27 27 26 25 26 27 25 23 22 22 22 23 23 24 25 26 26 26 25 25 24 23 23 24 24 23 23 24 27 29 30 30
16 16 17 17 17 19 20 19 16 12 11 12 11 10 11 12 11 12 14 15 15 16 17 18 19 18 17 18 20 22 22 21 21 22 22 21 22 23 24 25 25 24 24 25 24 24 24 25 25 24 23 23 23 24 24 24 25 25 26 26 25 25 24 24 24 24 24 25 27 28 30 30 31 31
17 17 17 17 17 18 19 18 16 13 12 13 12 11 12 14 15 16 16 15 15 17 20 22 21 20 20 22 25 26 26 25 24 24 24 23 23 24 24 24 23 21 21 21 21 22 23 24 24 24 25 25 26 27 27 26 26 26 25 26 26 27 27 27 28 28 29 29 30 31 31 30 30 30
16 16 16 15 15 16 16 15 14 14 14 15 14 13 14 15 16 17 17 17 17 19 21 23 24 23 24 26 27 28 27 27 27 27 26 26 25 24 23 23 22 21 21 21 21 24 25 25 25 26 28 29 28 28 27 27 27 27 27 28 29 30 30 31 31 32 32 31 30 29 27 27 28 29
14 14 14 14 15 16 17 16 15 15 16 17 17 17 18 18 19 19 19 19 19 20 22 24 26 27 28 28 28 29 29 30 29 28 27 27 26 25 24 25 25 24 23 23 25 26 27 27 27 27 28 28 28 27 27 27 27 28 30 31 32 32 33 33 33 33 32 30 26 25 26 27 28 29
16 14 14 15 17 18 19 19 19 19 19 20 20 20 19 19 20 20 20 19 19 21 23 26 28 30 30 30 30 30 31 30 29 27 27 27 27 27 27 27 27 27 26 27 28 28 28 29 29 28 27 27 28 29 29 29 29 30 32 33 33 33 32 31 31 31 30 28 26 26 27 28 29 30
17 16 15 16 17 19 20 20 21 22 22 21 20 18 17 17 18 18 18 18 20 22 25 27 28 29 30 31 32 32 31 29 27 26 26 27 28 28 29 30 29 28 29 31 31 31 31 33 33 31 30 31 32 33 32 32 33 33 33 32 32 31 29 28 28 28 27 27 28 29 30 30 32 33
18 18 17 17 17 18 19 20 21 21 21 20 19 17 17 17 17 17 17 19 21 23 26 27 28 29 31 32 33 33 32 28 25 26 27 29 29 28 29 31 31 30 31 32 34 35 35 36 36 34 34 34 33 32 31 30 29 28 27 26 26 26 26 25 25 25 26 28 30 32 34 34 35 36
18 19 19 18 18 19 20 21 21 21 20 20 20 19 18 19 18 19 20 22 24 25 25 26 27 30 32 33 32 32 31 28 27 28 29 30 30 30 31 33 33 31 31 33 37 39 37 35 36 34 32 30 28 26 25 23 22 22 21 21 22 22 23 23 24 28 30 32 33 34 36 37 39 41
19 21 21 20 19 20 22 23 23 23 22 21 21 20 20 20 20 21 23 24 25 25 25 26 28 29 30 30 30 29 28 27 28 29 30 30 31 31 30 31 31 30 31 36 41 41 35 32 31 30 27 25 23 23 23 22 22 22 22 22 22 22 23 25 27 31 33 35 37 38 40 42 43 44
20 22 22 20 20 21 22 24 24 24 23 21 20 20 21 21 21 23 24 24 23 23 24 27 27 25 25 27 28 26 25 26 26 27 29 30 30 30 29 29 31 32 34 36 38 36 32 28 28 27 25 23 23 23 24 24 25 25 25 24 24 24 26 29 32 35 38 39 41 42 43 43 42 41
22 23 21 20 21 22 22 23 24 23 22 20 20 20 21 22 22 23 23 22 22 22 23 25 24 22 23 25 26 25 24 24 25 27 29 29 30 31 31 33 35 36 33 30 29 30 28 25 26 27 26 24 24 24 25 26 26 26 26 26 29 31 33 35 36 37 38 39 40 40 41 40 40 41
23 23 22 20 21 22 22 23 22 21 20 19 19 21 22 23 23 23 22 21 20 21 21 22 22 21 21 22 23 23 23 24 27 28 29 30 31 34 36 37 37 33 26 21 24 29 28 26 28 29 27 24 23 23 25 26 25 27 30 33 34 35 34 33 32 32 33 34 35 37 38 39 41 42
24 23 22 21 20 21 23 22 21 19 18 19 21 22 23 24 24 22 21 19 18 19 20 20 20 19 19 19 21 23 24 25 27 28 29 32 34 36 37 36 32 26 20 18 23 30 30 28 28 28 25 23 23 24 26 28 30 33 35 35 32 30 28 29 29 31 32 33 34 36 37 39 41 42
24 23 22 20 20 21 22 20 18 18 18 19 21 22 23 23 23 20 18 18 19 20 20 21 21 21 20 21 22 23 24 26 27 29 30 30 29 29 29 27 24 22 20 20 24 29 30 28 26 26 26 27 28 31 34 35 35 34 31 27 25 25 26 28 30 32 33 34 35 37 38 40 41 42
25 23 21 20 20 20 19 18 17 17 19 20 21 22 22 21 20 19 19 19 20 20 21 21 22 23 23 23 24 24 25 25 25 24 23 21 21 23 24 25 25 25 23 23 25 27 28 26 26 29 34 36 38 39 38 34 29 25 23 23 24 25 27 29 31 32 34 35 36 38 39 40 40 40
23 21 20 20 20 19 17 17 18 18 19 20 20 19 19 19 19 19 20 21 21 22 22 22 23 24 24 24 24 24 23 22 20 19 18 19 20 22 24 25 27 27 26 24 23 24 27 28 31 35 38 40 40 36 29 25 22 22 23 25 26 26 29 32 34 35 36 36 37 38 39 38 38 38
20 18 18 18 18 16 14 15 16 17 18 18 17 16 17 18 18 19 20 21 22 23 24 24 24 24 23 22 20 18 16 16 16 16 17 18 19 19 19 20 21 23 24 24 24 27 30 32 34 33 31 31 33 30 25 24 25 25 25 27 29 30 32 35 37 37 37 38 37 38 39 39 38 38
17 16 15 15 14 12 11 12 14 15 16 15 15 15 16 17 18 19 20 21 22 24 25 24 23 22 20 18 15 14 13 14 15 15 17 18 18 19 19 20 22 25 28 29 28 28 27 26 26 25 22 24 30 32 31 31 30 28 28 30 32 33 35 38 39 39 39 39 38 39 41 42 42 40
15 14 14 12 10 9 10 12 13 14 14 14 13 14 15 16 17 18 18 19 20 22 22 21 20 18 16 15 14 14 15 15 16 17 19 20 22 24 25 27 29 29 30 29 25 22 22 22 20 21 23 27 31 34 35 37 35 32 31 32 33 35 37 38 40 41 41 41 41 42 43 45 44 41
14 13 12 10 8 8 10 12 13 14 13 13 13 14 15 15 15 15 15 16 17 18 17 17 16 14 13 15 16 16 16 17 19 21 23 25 27 28 28 27 25 22 22 23 20 17 19 21 20 21 25 28 31 34 36 37 37 35 35 35 35 37 37 38 40 42 42 43 44 45 47 49 47 42
15 14 12 10 9 9 10 12 13 13 13 13 14 15 14 13 12 13 14 14 13 13 13 13 12 11 13 17 17 16 16 19 21 22 23 23 23 22 21 20 19 18 19 19 16 14 16 19 20 22 24 27 30 33 35 36 37 38 38 39 39 38 37 38 40 42 43 44 46 48 50 51 48 43
16 14 13 12 11 10 11 13 13 13 13 13 14 14 12 11 11 12 12 11 10 11 10 10 11 12 15 18 19 18 19 21 20 17 16 16 16 17 19 19 19 17 15 14 14 14 15 17 20 22 25 28 29 32 34 36 37 38 39 40 40 38 37 38 40 42 44 45 47 49 50 49 45 42
16 16 15 14 12 11 12 13 13 13 13 14 13 11 10 10 10 10 10 10 10 11 11 11 12 13 16 20 21 20 22 22 19 15 15 17 18 19 20 20 19 16 14 14 15 16 17 19 21 24 26 27 29 32 35 35 37 39 39 37 38 38 39 39 40 42 44 45 48 51 50 47 43 42
17 18 17 15 13 13 13 14 13 13 13 12 10 9 10 10 10 10 10 10 10 11 12 13 13 14 17 19 20 21 24 22 17 14 16 18 19 19 18 19 20 20 18 18 17 18 19 21 21 23 24 26 30 33 35 35 37 39 36 32 33 38 41 41 42 43 44 47 50 53 50 46 43 43
18 18 17 15 15 15 15 13 12 11 10 9 8 9 11 11 10 10 11 11 11 12 13 14 14 16 18 18 20 22 24 19 14 13 16 18 18 18 18 19 21 22 23 23 22 22 21 20 20 22 23 25 29 33 35 36 35 33 31 30 33 37 39 40 42 44 46 48 51 52 50 47 44 43
17 17 17 16 16 15 14 13 11 9 8 8 8 10 12 12 12 11 11 12 13 14 14 14 14 15 17 18 21 21 19 14 12 15 17 18 18 18 18 20 21 22 23 26 26 25 21 19 19 20 21 24 29 32 34 33 29 26 28 32 34 37 39 41 42 45 47 48 49 50 49 47 45 44
16 16 16 16 16 15 13 12 11 9 9 9 11 12 12 11 11 11 13 14 13 12 11 11 13 15 18 20 20 17 14 13 14 17 17 17 17 18 19 20 20 21 23 25 26 24 21 19 19 19 22 27 31 31 29 27 25 26 30 33 35 37 40 42 43 45 47 45 45 48 49 48 47 45
15 15 15 15 15 13 11 11 12 12 11 11 12 11 10 10 10 11 13 15 13 11 12 13 16 18 18 17 15 13 12 14 16 17 16 16 17 18 19 19 21 22 23 24 23 22 21 21 21 21 26 31 34 31 27 24 26 31 33 34 35 37 40 42 43 45 46 44 44 45 46 48 50 48
14 13 14 15 14 12 12 14 15 14 13 13 14 11 8 8 8 8 10 13 13 14 17 19 20 19 17 14 13 12 13 15 16 15 16 17 18 18 19 20 21 22 22 22 22 22 22 23 22 22 26 31 34 33 30 27 27 30 32 33 35 36 39 42 44 45 45 44 43 41 41 46 51 50
13 14 15 15 14 13 13 14 14 13 13 14 14 10 5 5 6 6 9 13 14 15 18 19 20 19 17 15 14 13 13 14 14 15 17 18 18 19 20 21 21 20 20 21 22 22 23 24 22 22 25 29 32 33 33 31 28 26 27 31 35 36 37 40 43 45 44 42 40 39 40 45 49 48
15 16 16 16 15 15 14 14 15 14 14 14 13 11 10 10 9 9 12 14 14 15 17 19 20 19 17 15 14 12 11 12 14 16 18 18 18 19 21 20 19 20 21 22 22 22 23 23 22 22 25 29 30 31 32 34 32 27 26 30 34 35 35 37 40 42 42 40 39 40 40 43 45 45
17 18 18 17 16 16 16 16 16 15 13 13 13 12 12 13 12 12 13 14 16 16 17 19 20 18 16 13 10 8 10 13 15 17 17 17 18 19 19 18 19 21 22 23 23 22 22 23 23 23 25 28 29 29 30 32 32 29 28 30 31 30 31 34 37 39 39 38 40 42 43 43 43 42
18 18 18 17 16 16 15 14 13 12 13 13 12 11 11 12 13 13 14 15 16 17 18 21 18 13 9 6 6 7 11 14 16 17 17 17 18 17 17 18 20 21 22 23 23 23 23 24 25 24 23 25 27 28 28 29 30 29 29 30 27 25 27 30 32 34 35 36 39 41 42 44 45 43
18 18 18 17 16 14 13 12 12 13 14 15 14 13 12 11 12 13 14 15 16 17 19 17 11 6 4 4 6 9 12 14 17 17 16 15 16 17 18 19 20 21 21 22 23 23 25 27 25 21 21 23 25 27 28 29 29 29 30 30 27 24 26 29 29 28 30 33 36 37 37 39 42 42
17 16 15 14 13 13 12 13 15 16 15 14 14 14 13 13 15 16 17 17 17 18 17 12 7 5 5 6 9 11 13 16 18 16 13 13 16 18 18 19 20 21 21 21 23 24 25 24 22 20 20 21 21 23 25 25 25 27 29 31 30 28 29 29 28 27 27 27 30 32 33 35 37 39
16 14 13 12 12 13 13 14 15 14 13 12 12 13 14 15 16 16 16 17 19 19 15 10 7 6 7 10 12 13 15 16 15 12 12 14 17 17 18 19 20 20 19 20 22 24 24 23 23 23 20 18 18 20 21 22 22 25 28 30 31 33 32 30 28 28 28 25 23 23 23 24 27 30
14 12 12 13 13 13 13 13 12 11 11 10 10 11 13 14 14 14 16 18 20 18 13 8 7 9 12 13 13 13 14 13 11 10 13 16 16 15 17 19 19 18 18 20 23 23 22 23 25 22 18 17 18 19 19 19 21 24 26 28 31 35 36 34 32 33 33 29 24 20 17 15 16 18
14 12 13 14 14 13 13 13 11 11 11 12 13 14 15 15 15 16 18 18 15 10 7 7 9 12 14 14 13 14 13 10 8 11 14 15 14 14 16 18 18 17 17 19 23 23 22 24 25 20 16 17 20 19 17 18 20 23 25 28 31 35 36 34 34 36 38 35 29 24 19 15 13 14
Wind_Direction
198 202 208 208 209 213 220 227 226 222 227 240 248 252 255 253 250 250 249 250 250 247 252 270 278 270 269 277 283 291 294 298 303 305 307 308 309 311 310 308 307 305 302 301 301 299 295 291 286 281 280 282 283 283 283 281 278 277 276 276 278 280 282 283 284 285 285 284 284 283 283 283 282 280
205 210 213 213 212 214 220 226 228 231 237 245 250 255 257 255 251 250 254 257 256 256 254 256 261 263 268 273 279 286 291 293 293 292 295 298 301 303 302 303 304 305 305 304 305 306 305 302 293 280 274 277 280 283 285 285 282 279 278 278 280 280 281 281 281 281 282 282 283 282 282 282 282 281
214 217 218 221 225 231 238 242 244 241 236 242 253 260 264 266 260 249 254 264 264 268 270 254 252 263 270 275 279 282 286 289 289 288 289 290 291 291 291 294 297 298 297 296 297 300 302 304 299 288 278 278 281 283 285 286 283 280 280 279 280 281 283 282 279 277 277 278 280 281 280 279 280 280
216 214 213 215 222 233 242 251 255 244 232 238 250 259 269 273 267 255 259 270 274 276 280 280 283 282 279 281 284 282 280 281 283 286 288 289 290 288 286 290 294 294 291 288 290 293 295 296 296 289 282 280 282 283 284 285 281 278 279 278 278 281 285 286 281 275 273 274 276 278 277 275 275 276
217 209 208 211 218 228 237 250 256 240 227 234 245 255 261 257 253 255 259 269 276 281 283 289 298 296 287 288 294 294 290 285 281 280 283 286 288 289 288 289 291 292 289 286 287 290 291 292 293 289 282 280 281 282 285 287 285 281 279 276 276 280 285 286 284 278 273 271 271 272 273 272 273 273
220 218 219 225 231 236 240 249 257 247 232 238 252 257 247 235 235 240 249 265 277 285 288 287 292 295 289 287 293 298 298 295 290 284 282 284 286 287 288 290 291 290 288 286 285 287 290 293 293 288 282 282 283 285 286 288 288 288 286 281 278 280 283 284 284 281 277 273 269 266 268 271 273 273
221 226 230 232 234 236 237 242 250 248 238 244 258 259 242 237 240 238 250 267 278 284 285 281 285 291 288 287 294 299 299 297 295 293 290 287 284 283 285 289 291 289 284 281 280 282 286 291 291 285 281 281 283 285 286 287 288 289 289 287 283 282 283 284 285 283 279 275 273 271 272 273 273 272
225 230 235 236 233 233 235 239 241 238 239 248 257 253 239 237 242 246 255 266 273 280 284 285 288 289 289 293 300 302 300 297 295 296 297 293 286 284 288 291 292 289 282 277 276 279 285 289 289 286 284 283 283 285 286 288 288 289 289 290 288 287 287 287 287 286 283 280 280 281 280 276 273 272
226 230 235 235 232 231 234 234 229 225 236 248 252 248 241 239 243 249 256 264 271 279 288 294 295 293 295 301 305 304 303 302 300 299 301 300 296 294 296 296 294 290 283 277 277 281 285 287 287 287 288 288 287 287 287 287 287 288 288 290 290 290 288 287 287 288 287 284 283 284 283 279 276 274
226 229 232 232 233 235 233 226 219 220 233 245 245 241 243 248 253 259 264 268 273 280 289 296 298 298 301 303 304 305 304 303 302 300 300 302 302 300 299 298 296 294 290 286 284 286 288 288 285 285 286 286 286 286 287 287 287 285 285 285 287 287 286 285 286 287 287 285 282 281 281 279 277 276
229 230 231 233 237 242 238 229 222 222 230 240 242 243 249 257 261 265 268 271 277 283 290 296 297 299 301 300 301 304 304 300 298 296 297 301 302 300 298 298 299 297 294 290 289 291 294 294 290 287 285 283 285 289 289 289 286 284 283 284 285 286 285 285 285 286 286 283 278 276 276 277 280 280
232 230 228 230 235 239 239 236 232 229 231 236 242 248 255 259 261 263 268 274 281 287 291 295 297 298 298 298 298 300 300 297 295 294 295 298 299 300 299 299 299 297 293 290 290 293 297 298 296 293 289 287 291 293 292 290 286 285 286 287 288 288 287 286 285 285 284 279 274 274 276 278 281 283
235 233 231 233 236 237 237 238 238 237 237 239 243 250 258 264 267 271 276 282 287 290 291 293 294 295 295 297 298 298 298 298 295 292 293 294 297 299 297 296 296 294 293 293 293 295 300 302 299 294 291 292 293 292 291 290 289 288 289 289 289 289 289 287 284 284 283 279 275 275 276 277 279 280
242 241 240 241 241 239 238 238 237 237 240 243 247 254 262 269 274 276 278 282 285 287 289 290 293 295 296 298 298 295 295 294 289 287 289 293 296 296 293 293 293 292 293 296 297 298 300 300 297 293 292 293 293 293 293 292 292 292 292 292 293 292 291 289 287 286 287 285 281 278 276 275 276 277
249 248 246 244 241 239 240 240 237 237 241 247 253 258 263 268 271 274 277 281 283 284 287 291 294 295 296 298 296 292 292 290 286 286 289 293 296 296 294 293 292 291 294 299 301 300 300 299 297 295 295 296 297 297 297 297 297 296 298 300 300 297 294 293 293 291 289 286 282 280 277 276 277 278
253 250 246 245 242 240 240 239 238 239 243 249 255 261 266 270 273 275 278 281 282 284 287 290 291 292 294 295 293 291 292 291 289 289 291 294 296 296 295 294 293 295 300 302 302 301 301 301 299 299 301 304 305 303 301 303 303 302 302 303 301 298 294 291 289 286 284 281 280 280 280 281 281 281
253 250 245 244 242 239 239 237 237 240 245 252 258 264 269 271 272 276 279 281 283 285 286 286 286 288 291 292 293 294 295 293 291 291 291 293 295 296 296 296 296 300 303 304 303 301 302 303 303 305 309 312 311 308 305 306 305 302 301 299 295 292 288 286 284 283 282 281 281 281 281 282 282 281
251 248 245 245 243 241 243 242 242 245 250 256 262 266 269 272 275 280 282 283 284 284 284 283 284 287 290 291 292 293 292 292 293 294 295 296 297 298 298 298 299 302 304 304 301 300 303 309 310 311 315 316 312 307 304 302 299 295 292 290 288 287 286 285 286 286 285 284 282 281 282 283 284 283
246 245 245 246 246 247 249 250 251 253 255 259 264 267 271 276 280 283 284 284 285 284 283 283 287 290 290 288 288 289 289 291 294 295 296 297 298 298 298 298 298 300 301 302 301 301 307 315 313 310 312 310 302 296 294 291 288 286 286 288 289 289 289 289 290 290 289 289 288 286 285 285 284 283
240 242 244 246 248 251 253 254 255 255 257 262 266 270 274 279 282 283 284 282 280 280 280 283 286 287 285 284 286 288 290 290 291 291 292 294 296 296 295 295 295 297 299 301 303 304 308 312 307 301 299 294 287 285 285 284 284 287 290 292 293 295 296 296 297 297 296 295 294 292 290 289 287 286
238 241 245 249 253 254 254 252 251 252 258 265 270 274 278 280 280 279 278 276 276 279 281 283 284 283 284 284 286 287 288 289 290 292 293 296 298 298 296 295 298 301 301 301 302 302 302 302 298 292 288 286 286 287 288 288 291 292 293 295 299 303 306 305 304 303 300 298 298 298 297 296 293 291
239 244 249 256 261 260 256 251 250 255 265 271 275 277 277 275 274 276 278 280 283 285 284 283 281 280 282 284 285 287 289 290 292 293 295 300 305 305 302 301 302 302 298 297 298 296 293 290 289 290 291 291 291 292 295 297 298 297 298 303 308 311 313 314 312 310 306 303 302 302 302 300 297 293
240 246 252 257 261 262 259 254 255 262 270 274 275 273 270 271 275 281 287 290 290 289 284 281 280 280 282 286 288 289 290 292 294 295 297 301 306 306 303 299 298 297 293 292 294 292 289 289 290 294 297 298 298 300 304 306 304 303 308 313 314 316 318 320 320 317 312 308 305 304 304 303 300 295
239 245 250 251 254 257 257 258 263 268 271 270 268 266 269 277 284 289 292 292 291 289 286 284 284 285 288 291 291 292 295 301 304 302 299 300 301 302 301 296 292 290 288 291 295 295 295 295 296 296 298 301 306 311 315 312 307 309 314 316 316 319 323 324 322 319 314 310 307 306 307 307 305 300
238 242 243 245 250 256 260 265 269 270 265 261 262 269 278 286 290 292 292 290 288 287 287 288 288 289 290 290 292 299 305 304 299 293 291 294 295 296 296 295 293 292 292 294 297 299 301 303 303 302 303 307 310 314 315 312 310 312 314 315 317 321 323 323 321 318 315 313 311 311 312 312 308 303
231 233 238 247 258 265 266 268 267 261 255 257 268 280 287 289 291 292 292 291 289 288 289 291 290 288 289 294 298 302 302 296 288 283 283 285 287 289 292 295 297 298 297 295 297 302 306 308 309 308 310 311 312 311 310 309 310 311 311 313 317 321 322 322 320 318 316 314 313 313 313 313 310 304
229 234 245 256 265 267 264 261 255 248 250 263 278 286 289 290 293 296 299 299 296 292 290 288 287 291 306 317 311 300 293 291 289 286 285 285 286 288 289 291 294 299 302 303 305 307 306 306 309 310 309 310 310 309 308 310 312 312 310 311 314 318 320 321 319 317 316 316 316 315 314 314 313 309
232 241 249 256 263 264 255 246 243 246 258 273 284 289 290 292 295 302 310 313 309 303 295 289 292 307 323 328 322 309 301 300 298 294 291 290 292 294 295 297 302 309 315 316 316 316 310 307 310 314 314 311 310 310 312 314 316 315 313 312 312 315 318 319 318 317 317 318 319 319 316 315 315 313
231 239 246 254 260 252 239 237 243 252 263 275 285 288 287 289 296 307 318 324 324 323 315 307 314 322 320 320 322 322 320 317 313 309 306 306 310 312 312 311 312 316 324 327 326 324 319 314 315 317 316 313 312 314 316 317 316 315 315 313 312 314 316 317 317 317 319 320 320 319 317 316 315 314
236 243 248 252 253 243 236 240 247 256 268 279 283 281 280 286 295 307 319 324 323 325 320 315 319 319 312 312 319 323 323 321 320 323 324 323 322 321 319 317 317 322 331 334 331 328 325 323 321 318 315 314 315 317 318 316 313 314 315 315 314 315 315 317 318 319 320 321 321 320 320 318 316 315
242 247 249 249 247 240 238 244 253 265 275 276 269 267 276 284 288 296 306 308 307 311 311 308 307 304 301 308 316 320 319 319 321 326 327 322 321 323 325 323 323 326 330 332 333 331 327 323 321 318 316 315 316 318 318 315 312 313 315 318 318 316 316 318 321 320 321 322 321 321 322 320 317 316
240 243 245 245 243 241 243 252 263 272 273 265 260 269 276 279 283 290 292 289 290 299 301 297 292 289 293 303 312 314 316 320 326 330 326 322 323 327 328 325 325 328 329 330 331 329 324 321 319 318 317 315 316 319 320 317 314 315 318 321 321 318 318 321 322 321 322 323 322 321 322 320 317 316
238 241 243 243 243 243 250 260 265 268 269 265 270 276 275 272 275 278 278 278 281 284 283 279 276 280 290 302 310 314 319 328 335 331 324 323 326 328 327 325 326 328 328 327 326 326 325 325 321 318 318 319 320 322 323 321 319 320 322 324 324 322 322 324 322 321 322 324 323 321 321 319 316 318
239 242 244 244 243 247 257 264 267 271 277 280 283 281 271 266 268 271 273 276 278 277 273 272 277 285 296 303 309 317 329 334 329 323 321 324 328 328 326 326 326 328 328 325 325 329 333 333 329 325 325 326 324 325 327 327 325 324 325 328 328 326 324 324 322 321 323 325 324 322 320 317 317 322
239 241 242 241 243 251 264 271 273 275 277 283 287 278 261 254 257 261 263 263 264 270 279 285 291 297 303 307 312 324 331 324 318 321 326 330 329 327 326 326 326 327 326 325 329 335 338 336 331 328 330 331 329 330 336 337 332 330 330 330 330 328 325 323 322 322 324 326 325 322 319 315 318 325
238 241 242 242 245 258 268 270 273 276 279 285 286 278 262 251 244 242 247 251 259 276 288 295 300 303 305 309 313 318 317 313 316 326 332 330 327 326 326 324 324 325 326 329 334 337 337 337 334 329 330 334 333 333 339 341 336 333 333 331 331 330 327 323 322 323 325 326 324 322 319 315 318 325
236 238 241 242 247 257 264 269 274 277 280 283 280 271 253 235 233 252 269 271 279 293 299 301 305 305 304 307 307 303 306 315 325 330 327 324 325 326 324 323 324 327 330 333 336 337 336 337 334 330 332 337 335 332 335 338 336 336 337 336 334 332 328 325 324 325 326 326 324 321 319 317 318 324
235 235 237 238 242 251 261 267 268 267 269 269 262 252 247 247 257 279 286 286 293 299 297 301 306 304 302 305 305 303 313 326 327 322 319 321 324 323 322 324 329 331 332 333 335 337 337 337 337 335 334 335 333 332 334 335 334 335 340 341 337 333 331 330 329 328 328 327 323 320 319 319 321 325
234 235 235 236 244 257 265 263 257 253 255 257 256 255 256 260 269 280 286 292 298 296 297 305 308 301 294 296 303 314 326 325 317 314 316 320 322 321 324 330 333 332 333 333 335 337 338 338 338 335 330 329 330 330 331 332 331 332 339 344 342 339 339 338 336 332 330 328 325 322 321 321 323 327
234 233 237 246 259 265 260 252 248 250 255 262 268 268 265 268 277 285 291 297 299 300 304 309 309 304 297 302 317 326 322 313 308 310 314 316 320 325 330 333 333 333 333 332 334 337 337 334 331 327 323 325 327 325 326 330 331 332 338 345 346 347 349 349 345 338 333 331 329 327 326 325 327 330
234 237 246 256 262 257 245 242 251 261 267 272 273 270 267 269 278 289 295 293 293 298 303 305 308 318 326 327 327 320 311 304 304 308 312 318 325 332 334 333 332 333 332 332 335 336 334 330 328 322 320 325 325 321 324 333 336 336 341 345 346 347 348 350 352 347 340 336 335 332 330 329 329 332
239 246 252 252 248 244 243 250 258 264 272 274 269 267 271 272 276 284 288 287 290 299 303 303 306 313 314 314 312 305 301 302 307 312 321 329 331 331 332 332 332 332 332 333 335 335 333 334 337 334 331 332 329 322 326 336 341 342 343 345 345 346 345 347 352 355 351 346 341 337 334 334 335 336
242 246 246 244 246 250 257 266 269 269 271 269 263 266 274 277 280 284 285 289 297 301 300 298 300 302 300 299 298 297 299 304 311 322 331 331 328 328 330 331 331 331 333 334 335 336 338 345 351 350 345 339 331 327 332 340 344 345 346 346 347 350 351 350 352 357 359 356 348 339 334 334 336 338
241 241 239 241 247 253 263 273 274 266 263 264 266 273 276 275 277 279 282 291 297 295 289 288 289 289 290 290 291 298 303 306 316 329 328 324 324 327 328 329 330 332 334 336 337 339 345 353 357 355 347 338 335 337 341 344 346 347 348 350 351 354 355 356 356 359 4 6 0 349 338 331 327 326
236 236 232 233 240 252 265 271 264 257 259 264 268 274 274 273 273 276 284 295 300 292 282 282 275 276 283 287 291 301 307 312 324 325 319 318 323 327 328 330 331 332 336 339 340 341 345 353 357 354 343 341 347 349 346 346 348 349 349 352 356 357 358 360 2 3 6 10 10 4 355 345 334 326